Cleveland Burke, OH

11:50 PM EDT on May 25, 2017 (GMT -0400)
Burke Lakefront

Weather History for KBKL - March, 2012

Change the Weather History Date:

Friday, March 16, 2012

  Actual Average Record
Temperature  
Mean Temperature 56 °F -  
Max Temperature 66 °F 41 °F 66 °F (2012)
Min Temperature 48 °F 29 °F 16 °F (2014)
Degree Days  
Heating Degree Days 9    
Growing Degree Days 6 (Base 50)    
Moisture  
Dew Point 53 °F    
Average Humidity 79    
Maximum Humidity 93    
Minimum Humidity 70    
Precipitation  
Precipitation 0.19 in - - ()
Sea Level Pressure  
Sea Level Pressure 30.10 in    
Wind  
Wind Speed 5 mph (East)    
Max Wind Speed 10 mph    
Max Gust Speed 53 mph    
Visibility 8 miles    
Events Rain    
Averages and records for this station are not official NWS values.
T = Trace of Precipitation, MM = Missing Value Source: NWS Daily Summary

Daily Weather History Graph

Daily Weather History Graph

Search for Another Location

Airport or City:

Trip Planner

Search our weather history database for the weather conditions in past years. The results will help you decide how hot, cold, wet, or windy it might be!

Date:

Astronomy

Mar. 16, 2012 Rise Set
Actual Time 7:35 AM EDT 7:35 PM EDT
Civil Twilight 7:08 AM EDT 8:02 PM EDT
Nautical Twilight 6:36 AM EDT 8:34 PM EDT
Astronomical Twilight 6:03 AM EDT 9:07 PM EDT
Moon 3:57 AM EDT (3/16) 1:50 PM EDT (3/16)
Length of Visible Light 12h 54m
Length of Day
11h 59m
Waning Crescent, 33% of the Moon is Illuminated
Mar 16
Waning Crescent
Mar 22
New
Mar 30
First Quarter
Apr 6
Full
Apr 13
Last Quarter

Hourly Weather History & Observations

Time (EDT) Temp. Dew Point Humidity Pressure Visibility Wind Dir Wind Speed Gust Speed Precip Events Conditions
12:53 AM 61.0 °F 57.0 °F 87% 30.06 in 5.0 mi Calm Calm - N/A Rain Light Rain
1:53 AM 63.0 °F 55.9 °F 78% 30.08 in 6.0 mi South 10.4 mph - 0.11 in Rain Rain
2:53 AM 62.1 °F 54.0 °F 75% 29.96 in 10.0 mi SSE 10.4 mph 20.7 mph 0.08 in   Overcast
3:53 AM 62.1 °F 52.0 °F 70% 30.00 in 10.0 mi SSW 9.2 mph - N/A   Clear
4:53 AM 60.1 °F 53.1 °F 78% 30.01 in 10.0 mi SSE 4.6 mph - N/A   Clear
5:53 AM 60.1 °F 53.1 °F 78% 30.03 in 10.0 mi SSE 6.9 mph - N/A   Clear
6:53 AM 61.0 °F 52.0 °F 72% 30.06 in 10.0 mi SSE 8.1 mph - N/A   Clear
7:53 AM 60.1 °F 51.1 °F 72% 30.08 in 10.0 mi SSE 4.6 mph - N/A   Clear
8:53 AM 61.0 °F 52.0 °F 72% 30.10 in 10.0 mi South 4.6 mph - N/A   Mostly Cloudy
9:32 AM 48.2 °F 44.6 °F 87% 30.12 in 9.0 mi ENE 5.8 mph - N/A   Overcast
9:53 AM 48.9 °F 45.0 °F 86% 30.13 in 10.0 mi ENE 4.6 mph - N/A   Overcast
10:53 AM 55.0 °F 48.0 °F 77% 30.14 in 10.0 mi NNE 3.5 mph - N/A   Overcast
11:53 AM 55.4 °F 50.0 °F 82% 30.14 in 10.0 mi WNW 3.5 mph - N/A   Overcast
12:53 PM 59.0 °F 51.1 °F 75% 30.14 in 10.0 mi Calm Calm - N/A   Overcast
1:53 PM 63.0 °F 55.0 °F 75% 30.13 in 10.0 mi Calm Calm - N/A   Overcast
2:14 PM 64.4 °F 55.4 °F 73% 30.12 in 10.0 mi Calm Calm - N/A   Scattered Clouds
2:53 PM 64.9 °F 55.0 °F 70% 30.12 in 10.0 mi North 4.6 mph - N/A   Clear
3:53 PM 63.0 °F 55.0 °F 75% 30.12 in 10.0 mi NE 6.9 mph - N/A   Clear
4:53 PM 63.0 °F 55.9 °F 78% 30.13 in 10.0 mi NE 8.1 mph 52.9 mph N/A   Squalls
5:20 PM 62.6 °F 55.4 °F 77% 30.14 in 10.0 mi NE 9.2 mph - N/A   Clear
5:53 PM 61.0 °F 55.0 °F 81% 30.13 in 8.0 mi NE 6.9 mph - N/A   Clear
6:53 PM 61.0 °F 55.0 °F 81% 30.14 in 6.0 mi NE 4.6 mph - N/A   Haze
7:53 PM 57.0 °F 53.1 °F 87% 30.14 in 3.0 mi NE 3.5 mph - N/A   Clear
8:53 PM 59.0 °F 55.0 °F 87% 30.14 in 5.0 mi Calm Calm - N/A   Clear
9:53 PM 59.0 °F 55.0 °F 87% 30.15 in 5.0 mi East 3.5 mph - N/A   Clear
10:53 PM 60.1 °F 55.0 °F 83% 30.15 in 4.0 mi Calm Calm - N/A   Haze
11:53 PM 55.9 °F 54.0 °F 93% 30.17 in 4.0 mi Calm Calm - N/A   Clear